Mont Saint Michel — FNMT — position and weather

sailwx.info

Track history (hours):
 
Tides and Currents Weather Stations Pressure Air Temp Water Temp Dewpoint Dewpoint Depression Visibility Wind Speed Wind Dir Waves Ship Positions

Mont Saint Michel

Last reported at 2017-Jan-20 17:33 UTC. Time now 2017-Jan-20 18:14 UTC.
Position N 50°30' W 000°54'.

Length 173 m; beam 29 m.

Type: Ship. MMSI: 227023100.

Date/timePositionNaut miles runAvg speedWind from/ knotsBaromVisibWave heightAir tempDewpointWater temp
2017-Jan-20 17:33N 50°30' W 000°54'1918.5
2017-Jan-20 16:33N 50°12' W 000°44'1716.7
2017-Jan-20 15:33N 49°57' W 000°35'1716.6
2017-Jan-20 14:33N 49°42' W 000°25'1717.4
2017-Jan-20 13:33N 49°25' W 000°16'8 7.9
2017-Jan-20 12:33N 49°17' W 000°15'0 0.0
2017-Jan-20 11:33N 49°17' W 000°15'0 0.0
2017-Jan-20 10:33N 49°17' W 000°15'0 0.0
2017-Jan-20 09:33N 49°17' W 000°15'0 0.0
2017-Jan-20 08:33N 49°17' W 000°15'0 0.0
2017-Jan-20 07:33N 49°17' W 000°15'0 0.0
2017-Jan-20 06:33N 49°17' W 000°15'1111.1
2017-Jan-20 05:34N 49°28' W 000°17'1514.7
2017-Jan-20 04:33N 49°42' W 000°25'1211.6
2017-Jan-20 03:33N 49°53' W 000°31'1211.8
2017-Jan-20 02:33N 50°04' W 000°37'2713.7
2017-Jan-20 00:33N 50°29' W 000°54'1413.9
2017-Jan-19 23:34N 50°43' W 000°59'7 7.1
2017-Jan-19 22:33N 50°49' W 001°06'0 0.0
2017-Jan-19 21:34N 50°49' W 001°06'2 1.9
2017-Jan-19 20:33N 50°47' W 001°06'1717.2
2017-Jan-19 19:33N 50°31' W 000°55'2020.2
2017-Jan-19 18:33N 50°12' W 000°44'1919.0
2017-Jan-19 17:33N 49°54' W 000°34'1919.2
2017-Jan-19 16:33N 49°36' W 000°24'1818.4
2017-Jan-19 15:33N 49°19' W 000°15'2 1.5
2017-Jan-19 14:33N 49°17' W 000°15'0 0.1
2017-Jan-19 13:33N 49°17' W 000°15'1918.9
2017-Jan-19 12:33N 49°35' W 000°24'2121.0
2017-Jan-19 11:33N 49°55' W 000°37'3919.5
2017-Jan-19 09:33N 50°32' W 000°55'1716.6
2017-Jan-19 08:33N 50°47' W 001°06'2 1.9
2017-Jan-19 07:34N 50°49' W 001°06'0 0.1
2017-Jan-19 06:34N 50°49' W 001°06'1414.0
2017-Jan-19 05:34N 50°36' W 000°57'1211.8
2017-Jan-19 04:33N 50°25' W 000°50'1211.8
2017-Jan-19 03:33N 50°14' W 000°42'1211.6
2017-Jan-19 02:33N 50°04' W 000°35'1111.4
2017-Jan-19 01:33N 49°53' W 000°30'1111.5
2017-Jan-19 00:33N 49°42' W 000°25'1211.5
2017-Jan-18 23:33N 49°31' W 000°20'1211.5
2017-Jan-18 22:33N 49°20' W 000°14'2 2.2
2017-Jan-18 21:33N 49°17' W 000°15'0 0.0
2017-Jan-18 20:33N 49°17' W 000°15'1111.4
2017-Jan-18 19:34N 49°29' W 000°18'2019.6
2017-Jan-18 18:33N 49°47' W 000°29'1818.2
2017-Jan-18 17:34N 50°04' W 000°39'2018.6
2017-Jan-18 16:30N 50°22' W 000°49'1818.6
2017-Jan-18 15:33N 50°39' W 000°59'1110.8
2017-Jan-18 14:33N 50°49' W 001°06'0 0.0
2017-Jan-18 13:33N 50°49' W 001°06'3 3.1
2017-Jan-18 12:34N 50°46' W 001°05'1918.9
2017-Jan-18 11:33N 50°28' W 000°52'2120.6
2017-Jan-18 10:34N 50°09' W 000°42'2020.2
2017-Jan-18 09:34N 49°50' W 000°32'2020.3
2017-Jan-18 08:34N 49°31' W 000°20'1414.2
2017-Jan-18 07:33N 49°17' W 000°15'0 0.0
2017-Jan-18 06:34N 49°17' W 000°15'0 0.1
2017-Jan-18 05:34N 49°17' W 000°15'1515.3
2017-Jan-18 04:33N 49°32' W 000°20'1515.2
2017-Jan-18 03:34N 49°47' W 000°28'1615.7
2017-Jan-18 02:34N 50°01' W 000°35'3216.2
2017-Jan-18 00:33N 50°31' W 000°55'1414.5
2017-Jan-17 23:33N 50°44' W 001°05'4 4.4
2017-Jan-17 22:33N 50°49' W 001°06'0 0.0
2017-Jan-17 21:34N 50°49' W 001°06'3 3.1
2017-Jan-17 20:33N 50°46' W 001°05'1918.7
2017-Jan-17 19:33N 50°29' W 000°53'2020.2
2017-Jan-17 18:33N 50°09' W 000°43'2020.1
2017-Jan-17 17:33N 49°51' W 000°33'2020.2
2017-Jan-17 16:33N 49°32' W 000°21'1515.0
2017-Jan-17 15:33N 49°17' W 000°15'0 0.0
2017-Jan-17 14:33N 49°17' W 000°15'1 0.9
2017-Jan-17 13:34N 49°18' W 000°15'1918.6
2017-Jan-17 12:34N 49°36' W 000°24'1919.1
2017-Jan-17 11:34N 49°54' W 000°34'2019.9
2017-Jan-17 10:33N 50°12' W 000°45'2019.6
2017-Jan-17 09:34N 50°31' W 000°53'1817.8
2017-Jan-17 08:34N 50°47' W 001°06'2 1.7
2017-Jan-17 07:33N 50°49' W 001°06'1 0.6
2017-Jan-17 06:33N 50°49' W 001°07'1312.8
2017-Jan-17 05:33N 50°37' W 000°59'2311.7
2017-Jan-17 03:33N 50°15' W 000°46'1212.2
2017-Jan-17 02:33N 50°04' W 000°38'1211.7
2017-Jan-17 01:33N 49°53' W 000°30'1111.5
2017-Jan-17 00:33N 49°42' W 000°24'1211.8
2017-Jan-16 23:33N 49°31' W 000°19'1111.1
2017-Jan-16 22:33N 49°20' W 000°14'3 3.0
2017-Jan-16 21:33N 49°17' W 000°15'0 0.0
2017-Jan-16 20:33N 49°17' W 000°15'1111.1
2017-Jan-16 19:34N 49°28' W 000°20'1818.3
2017-Jan-16 18:34N 49°45' W 000°31'1818.3
2017-Jan-16 17:34N 50°03' W 000°36'2218.1
2017-Jan-16 16:21N 50°23' W 000°50'1518.6
2017-Jan-16 15:34N 50°37' W 000°58'1313.0
2017-Jan-16 14:33N 50°49' W 001°06'0 0.0
2017-Jan-16 13:33N 50°49' W 001°06'4 4.4
2017-Jan-16 12:34N 50°44' W 001°05'2019.8
2017-Jan-16 11:33N 50°27' W 000°49'1919.2
2017-Jan-16 10:33N 50°09' W 000°39'1818.5
2017-Jan-16 09:33N 49°51' W 000°31'1818.5
2017-Jan-16 08:33N 49°34' W 000°20'1716.7
2017-Jan-16 07:33N 49°18' W 000°15'0 0.5
2017-Jan-16 06:33N 49°17' W 000°15'0 0.0
2017-Jan-16 05:33N 49°17' W 000°15'1312.7
2017-Jan-16 04:34N 49°30' W 000°20'1515.0
2017-Jan-16 03:33N 49°43' W 000°30'1414.0
2017-Jan-16 02:33N 49°56' W 000°37'1514.7
2017-Jan-16 01:31N 50°11' W 000°45'1414.3
2017-Jan-16 00:33N 50°24' W 000°49'1515.2
2017-Jan-15 23:34N 50°38' W 000°57'1211.7
2017-Jan-15 22:34N 50°49' W 001°06'0 0.2
2017-Jan-15 21:34N 50°49' W 001°06'5 5.2
2017-Jan-15 20:33N 50°44' W 001°03'1918.5
2017-Jan-15 19:33N 50°26' W 000°52'1818.1
2017-Jan-15 18:33N 50°09' W 000°43'1818.4
2017-Jan-15 17:33N 49°53' W 000°32'1818.2
2017-Jan-15 16:33N 49°35' W 000°22'1818.1
2017-Jan-15 15:33N 49°18' W 000°15'1 0.6
2017-Jan-15 14:33N 49°17' W 000°15'2 2.1
2017-Jan-15 13:33N 49°19' W 000°15'1817.9
2017-Jan-15 12:33N 49°37' W 000°21'1817.7
2017-Jan-15 11:33N 49°53' W 000°30'2019.9
2017-Jan-15 10:32N 50°13' W 000°40'1919.8
2017-Jan-15 09:33N 50°31' W 000°52'1918.6
2017-Jan-15 08:33N 50°47' W 001°06'2 1.8
2017-Jan-15 07:33N 50°49' W 001°06'1 0.7
2017-Jan-15 06:33N 50°48' W 001°07'1313.2
2017-Jan-15 05:34N 50°37' W 000°57'1413.6
2017-Jan-15 04:33N 50°24' W 000°48'1110.8
2017-Jan-15 03:33N 50°14' W 000°43'1111.4
2017-Jan-15 02:33N 50°04' W 000°36'1110.9
2017-Jan-15 01:33N 49°53' W 000°32'1110.7
2017-Jan-15 00:33N 49°43' W 000°25'1010.4
2017-Jan-14 23:33N 49°34' W 000°19'1010.3
2017-Jan-14 22:33N 49°24' W 000°16'6 6.2
2017-Jan-14 21:33N 49°17' W 000°15'0 0.0
2017-Jan-14 20:33N 49°17' W 000°15'1110.8
2017-Jan-14 19:33N 49°28' W 000°16'1919.0
2017-Jan-14 18:33N 49°46' W 000°26'1918.5
2017-Jan-14 17:33N 50°03' W 000°35'2018.5
2017-Jan-14 16:29N 50°22' W 000°47'1718.6
2017-Jan-14 15:33N 50°38' W 000°58'1212.1
2017-Jan-14 14:34N 50°49' W 001°06'0 0.0
2017-Jan-14 13:34N 50°49' W 001°06'4 4.2
2017-Jan-14 12:34N 50°45' W 001°05'3819.0
2017-Jan-14 10:33N 50°10' W 000°39'1919.0
2017-Jan-14 09:33N 49°53' W 000°28'1918.9
2017-Jan-14 08:33N 49°34' W 000°20'1717.4
2017-Jan-14 07:33N 49°17' W 000°15'0 0.1
2017-Jan-14 06:33N 49°17' W 000°15'0 0.1
2017-Jan-14 05:33N 49°17' W 000°15'1413.7
2017-Jan-14 04:33N 49°31' W 000°19'1515.0
2017-Jan-14 03:33N 49°44' W 000°29'5112.9
2017-Jan-13 23:34N 50°33' W 000°55'1111.0
2017-Jan-13 22:34N 50°43' W 001°02'6 6.2
2017-Jan-13 21:34N 50°49' W 001°06'0 0.0
2017-Jan-13 20:34N 50°49' W 001°06'0 0.0
2017-Jan-13 19:34N 50°49' W 001°06'6 5.8
2017-Jan-13 18:33N 50°43' W 001°02'1818.3
2017-Jan-13 17:33N 50°26' W 000°52'1918.9
2017-Jan-13 16:33N 50°09' W 000°42'1918.8
2017-Jan-13 15:33N 49°51' W 000°31'1717.2
2017-Jan-13 14:33N 49°35' W 000°22'1717.4
2017-Jan-13 13:33N 49°18' W 000°15'1 0.9
2017-Jan-13 12:33N 49°17' W 000°15'0 0.0
2017-Jan-13 11:33N 49°17' W 000°15'0 0.0
2017-Jan-13 10:33N 49°17' W 000°15'0 0.0
2017-Jan-13 09:33N 49°17' W 000°15'0 0.0
2017-Jan-13 08:33N 49°17' W 000°15'0 0.0
2017-Jan-13 07:33N 49°17' W 000°15'0 0.0
2017-Jan-13 06:33N 49°17' W 000°15'1110.5
2017-Jan-13 05:33N 49°28' W 000°19'1817.7
2017-Jan-13 04:33N 49°43' W 000°32'1515.4
2017-Jan-13 03:33N 49°58' W 000°38'1514.5
2017-Jan-13 02:33N 50°12' W 000°46'1615.5
2017-Jan-13 01:33N 50°27' W 000°53'1515.3
2017-Jan-13 00:33N 50°41' W 001°00'8 8.4
2017-Jan-12 23:33N 50°49' W 001°06'0 0.0
2017-Jan-12 22:33N 50°49' W 001°06'0 0.4
2017-Jan-12 21:34N 50°49' W 001°06'1515.0
2017-Jan-12 20:33N 50°35' W 000°57'1918.1
2017-Jan-12 19:29N 50°17' W 000°47'1515.6
2017-Jan-12 18:33N 50°04' W 000°37'1616.4
2017-Jan-12 17:33N 49°48' W 000°28'1918.8
2017-Jan-12 16:34N 49°30' W 000°19'1313.3
2017-Jan-12 15:33N 49°17' W 000°15'0 0.0
2017-Jan-12 14:33N 49°17' W 000°15'2 2.1
2017-Jan-12 13:33N 49°19' W 000°15'1918.7
2017-Jan-12 12:33N 49°37' W 000°22'1918.8
2017-Jan-12 11:33N 49°55' W 000°31'3919.5
2017-Jan-12 09:33N 50°32' W 000°53'1818.1
2017-Jan-12 08:33N 50°48' W 001°07'1 1.3
2017-Jan-12 07:33N 50°49' W 001°06'0 0.4
2017-Jan-12 06:33N 50°49' W 001°06'1413.6
2017-Jan-12 05:33N 50°36' W 000°58'1812.2
2017-Jan-12 04:04N 50°19' W 000°48'510.8
2017-Jan-12 03:33N 50°14' W 000°45'1110.7
2017-Jan-12 02:34N 50°04' W 000°41'1211.5
2017-Jan-12 01:33N 49°53' W 000°34'1211.7
2017-Jan-12 00:34N 49°42' W 000°28'1111.4
2017-Jan-11 23:33N 49°31' W 000°21'1110.8
2017-Jan-11 22:33N 49°21' W 000°15'4 4.0
2017-Jan-11 21:33N 49°17' W 000°15'0 0.0
2017-Jan-11 20:33N 49°17' W 000°15'1211.8
2017-Jan-11 19:33N 49°29' W 000°20'1919.3
2017-Jan-11 18:33N 49°46' W 000°33'1817.9
2017-Jan-11 17:33N 50°04' W 000°34'1918.7
2017-Jan-11 16:33N 50°21' W 000°47'1919.0
2017-Jan-11 15:34N 50°38' W 000°58'1111.3
2017-Jan-11 14:33N 50°49' W 001°06'0 0.0
2017-Jan-11 13:33N 50°49' W 001°06'4 4.5
2017-Jan-11 12:33N 50°44' W 001°04'2019.6
2017-Jan-11 11:33N 50°27' W 000°50'2020.4
2017-Jan-11 10:33N 50°07' W 000°41'1918.8
2017-Jan-11 09:33N 49°50' W 000°32'1818.3
2017-Jan-11 08:33N 49°33' W 000°20'1615.9
2017-Jan-11 07:34N 49°17' W 000°15'0 0.0
2017-Jan-11 06:34N 49°17' W 000°15'0 0.0
2017-Jan-11 05:34N 49°17' W 000°15'1413.9
2017-Jan-11 04:34N 49°31' W 000°20'1616.3
2017-Jan-11 03:34N 49°46' W 000°29'1615.6
2017-Jan-11 02:33N 50°01' W 000°37'1615.1
2017-Jan-11 01:32N 50°15' W 000°46'1515.1
2017-Jan-11 00:34N 50°29' W 000°54'1515.0
2017-Jan-10 23:34N 50°43' W 001°02'6 6.1
2017-Jan-10 22:34N 50°49' W 001°06'0 0.0
2017-Jan-10 21:33N 50°49' W 001°06'5 5.0
2017-Jan-10 20:33N 50°44' W 001°04'2019.5
2017-Jan-10 19:34N 50°26' W 000°51'2020.0
2017-Jan-10 18:34N 50°07' W 000°41'1919.1
2017-Jan-10 17:33N 49°49' W 000°33'  
Track history (hours):
 
Tides and Currents Weather Stations Pressure Air Temp Water Temp Dewpoint Dewpoint Depression Visibility Wind Speed Wind Dir Waves Ship Positions

Mont Saint Michel

Last reported at 2017-Jan-20 17:33 UTC. Time now 2017-Jan-20 18:14 UTC.
Position N 50°30' W 000°54'.

Length 173 m; beam 29 m.

Type: Ship. MMSI: 227023100.

Date/timePositionNaut miles runAvg speedWind from/ knotsBaromVisibWave heightAir tempDewpointWater temp
2017-Jan-20 17:33N 50°30' W 000°54'1918.5
2017-Jan-20 16:33N 50°12' W 000°44'1716.7
2017-Jan-20 15:33N 49°57' W 000°35'1716.6
2017-Jan-20 14:33N 49°42' W 000°25'1717.4
2017-Jan-20 13:33N 49°25' W 000°16'8 7.9
2017-Jan-20 12:33N 49°17' W 000°15'0 0.0
2017-Jan-20 11:33N 49°17' W 000°15'0 0.0
2017-Jan-20 10:33N 49°17' W 000°15'0 0.0
2017-Jan-20 09:33N 49°17' W 000°15'0 0.0
2017-Jan-20 08:33N 49°17' W 000°15'0 0.0
2017-Jan-20 07:33N 49°17' W 000°15'0 0.0
2017-Jan-20 06:33N 49°17' W 000°15'1111.1
2017-Jan-20 05:34N 49°28' W 000°17'1514.7
2017-Jan-20 04:33N 49°42' W 000°25'1211.6
2017-Jan-20 03:33N 49°53' W 000°31'1211.8
2017-Jan-20 02:33N 50°04' W 000°37'2713.7
2017-Jan-20 00:33N 50°29' W 000°54'1413.9
2017-Jan-19 23:34N 50°43' W 000°59'7 7.1
2017-Jan-19 22:33N 50°49' W 001°06'0 0.0
2017-Jan-19 21:34N 50°49' W 001°06'2 1.9
2017-Jan-19 20:33N 50°47' W 001°06'1717.2
2017-Jan-19 19:33N 50°31' W 000°55'2020.2
2017-Jan-19 18:33N 50°12' W 000°44'1919.0
2017-Jan-19 17:33N 49°54' W 000°34'1919.2
2017-Jan-19 16:33N 49°36' W 000°24'1818.4
2017-Jan-19 15:33N 49°19' W 000°15'2 1.5
2017-Jan-19 14:33N 49°17' W 000°15'0 0.1
2017-Jan-19 13:33N 49°17' W 000°15'1918.9
2017-Jan-19 12:33N 49°35' W 000°24'2121.0
2017-Jan-19 11:33N 49°55' W 000°37'3919.5
2017-Jan-19 09:33N 50°32' W 000°55'1716.6
2017-Jan-19 08:33N 50°47' W 001°06'2 1.9
2017-Jan-19 07:34N 50°49' W 001°06'0 0.1
2017-Jan-19 06:34N 50°49' W 001°06'1414.0
2017-Jan-19 05:34N 50°36' W 000°57'1211.8
2017-Jan-19 04:33N 50°25' W 000°50'1211.8
2017-Jan-19 03:33N 50°14' W 000°42'1211.6
2017-Jan-19 02:33N 50°04' W 000°35'1111.4
2017-Jan-19 01:33N 49°53' W 000°30'1111.5
2017-Jan-19 00:33N 49°42' W 000°25'1211.5
2017-Jan-18 23:33N 49°31' W 000°20'1211.5
2017-Jan-18 22:33N 49°20' W 000°14'2 2.2
2017-Jan-18 21:33N 49°17' W 000°15'0 0.0
2017-Jan-18 20:33N 49°17' W 000°15'1111.4
2017-Jan-18 19:34N 49°29' W 000°18'2019.6
2017-Jan-18 18:33N 49°47' W 000°29'1818.2
2017-Jan-18 17:34N 50°04' W 000°39'2018.6
2017-Jan-18 16:30N 50°22' W 000°49'1818.6
2017-Jan-18 15:33N 50°39' W 000°59'1110.8
2017-Jan-18 14:33N 50°49' W 001°06'0 0.0
2017-Jan-18 13:33N 50°49' W 001°06'3 3.1
2017-Jan-18 12:34N 50°46' W 001°05'1918.9
2017-Jan-18 11:33N 50°28' W 000°52'2120.6
2017-Jan-18 10:34N 50°09' W 000°42'2020.2
2017-Jan-18 09:34N 49°50' W 000°32'2020.3
2017-Jan-18 08:34N 49°31' W 000°20'1414.2
2017-Jan-18 07:33N 49°17' W 000°15'0 0.0
2017-Jan-18 06:34N 49°17' W 000°15'0 0.1
2017-Jan-18 05:34N 49°17' W 000°15'1515.3
2017-Jan-18 04:33N 49°32' W 000°20'1515.2
2017-Jan-18 03:34N 49°47' W 000°28'1615.7
2017-Jan-18 02:34N 50°01' W 000°35'3216.2
2017-Jan-18 00:33N 50°31' W 000°55'1414.5
2017-Jan-17 23:33N 50°44' W 001°05'4 4.4
2017-Jan-17 22:33N 50°49' W 001°06'0 0.0
2017-Jan-17 21:34N 50°49' W 001°06'3 3.1
2017-Jan-17 20:33N 50°46' W 001°05'1918.7
2017-Jan-17 19:33N 50°29' W 000°53'2020.2
2017-Jan-17 18:33N 50°09' W 000°43'2020.1
2017-Jan-17 17:33N 49°51' W 000°33'2020.2
2017-Jan-17 16:33N 49°32' W 000°21'1515.0
2017-Jan-17 15:33N 49°17' W 000°15'0 0.0
2017-Jan-17 14:33N 49°17' W 000°15'1 0.9
2017-Jan-17 13:34N 49°18' W 000°15'1918.6
2017-Jan-17 12:34N 49°36' W 000°24'1919.1
2017-Jan-17 11:34N 49°54' W 000°34'2019.9
2017-Jan-17 10:33N 50°12' W 000°45'2019.6
2017-Jan-17 09:34N 50°31' W 000°53'1817.8
2017-Jan-17 08:34N 50°47' W 001°06'2 1.7
2017-Jan-17 07:33N 50°49' W 001°06'1 0.6
2017-Jan-17 06:33N 50°49' W 001°07'1312.8
2017-Jan-17 05:33N 50°37' W 000°59'2311.7
2017-Jan-17 03:33N 50°15' W 000°46'1212.2
2017-Jan-17 02:33N 50°04' W 000°38'1211.7
2017-Jan-17 01:33N 49°53' W 000°30'1111.5
2017-Jan-17 00:33N 49°42' W 000°24'1211.8
2017-Jan-16 23:33N 49°31' W 000°19'1111.1
2017-Jan-16 22:33N 49°20' W 000°14'3 3.0
2017-Jan-16 21:33N 49°17' W 000°15'0 0.0
2017-Jan-16 20:33N 49°17' W 000°15'1111.1
2017-Jan-16 19:34N 49°28' W 000°20'1818.3
2017-Jan-16 18:34N 49°45' W 000°31'1818.3
2017-Jan-16 17:34N 50°03' W 000°36'2218.1
2017-Jan-16 16:21N 50°23' W 000°50'1518.6
2017-Jan-16 15:34N 50°37' W 000°58'1313.0
2017-Jan-16 14:33N 50°49' W 001°06'0 0.0
2017-Jan-16 13:33N 50°49' W 001°06'4 4.4
2017-Jan-16 12:34N 50°44' W 001°05'2019.8
2017-Jan-16 11:33N 50°27' W 000°49'1919.2
2017-Jan-16 10:33N 50°09' W 000°39'1818.5
2017-Jan-16 09:33N 49°51' W 000°31'1818.5
2017-Jan-16 08:33N 49°34' W 000°20'1716.7
2017-Jan-16 07:33N 49°18' W 000°15'0 0.5
2017-Jan-16 06:33N 49°17' W 000°15'0 0.0
2017-Jan-16 05:33N 49°17' W 000°15'1312.7
2017-Jan-16 04:34N 49°30' W 000°20'1515.0
2017-Jan-16 03:33N 49°43' W 000°30'1414.0
2017-Jan-16 02:33N 49°56' W 000°37'1514.7
2017-Jan-16 01:31N 50°11' W 000°45'1414.3
2017-Jan-16 00:33N 50°24' W 000°49'1515.2
2017-Jan-15 23:34N 50°38' W 000°57'1211.7
2017-Jan-15 22:34N 50°49' W 001°06'0 0.2
2017-Jan-15 21:34N 50°49' W 001°06'5 5.2
2017-Jan-15 20:33N 50°44' W 001°03'1918.5
2017-Jan-15 19:33N 50°26' W 000°52'1818.1
2017-Jan-15 18:33N 50°09' W 000°43'1818.4
2017-Jan-15 17:33N 49°53' W 000°32'1818.2
2017-Jan-15 16:33N 49°35' W 000°22'1818.1
2017-Jan-15 15:33N 49°18' W 000°15'1 0.6
2017-Jan-15 14:33N 49°17' W 000°15'2 2.1
2017-Jan-15 13:33N 49°19' W 000°15'1817.9
2017-Jan-15 12:33N 49°37' W 000°21'1817.7
2017-Jan-15 11:33N 49°53' W 000°30'2019.9
2017-Jan-15 10:32N 50°13' W 000°40'1919.8
2017-Jan-15 09:33N 50°31' W 000°52'1918.6
2017-Jan-15 08:33N 50°47' W 001°06'2 1.8
2017-Jan-15 07:33N 50°49' W 001°06'1 0.7
2017-Jan-15 06:33N 50°48' W 001°07'1313.2
2017-Jan-15 05:34N 50°37' W 000°57'1413.6
2017-Jan-15 04:33N 50°24' W 000°48'1110.8
2017-Jan-15 03:33N 50°14' W 000°43'1111.4
2017-Jan-15 02:33N 50°04' W 000°36'1110.9
2017-Jan-15 01:33N 49°53' W 000°32'1110.7
2017-Jan-15 00:33N 49°43' W 000°25'1010.4
2017-Jan-14 23:33N 49°34' W 000°19'1010.3
2017-Jan-14 22:33N 49°24' W 000°16'6 6.2
2017-Jan-14 21:33N 49°17' W 000°15'0 0.0
2017-Jan-14 20:33N 49°17' W 000°15'1110.8
2017-Jan-14 19:33N 49°28' W 000°16'1919.0
2017-Jan-14 18:33N 49°46' W 000°26'1918.5
2017-Jan-14 17:33N 50°03' W 000°35'2018.5
2017-Jan-14 16:29N 50°22' W 000°47'1718.6
2017-Jan-14 15:33N 50°38' W 000°58'1212.1
2017-Jan-14 14:34N 50°49' W 001°06'0 0.0
2017-Jan-14 13:34N 50°49' W 001°06'4 4.2
2017-Jan-14 12:34N 50°45' W 001°05'3819.0
2017-Jan-14 10:33N 50°10' W 000°39'1919.0
2017-Jan-14 09:33N 49°53' W 000°28'1918.9
2017-Jan-14 08:33N 49°34' W 000°20'1717.4
2017-Jan-14 07:33N 49°17' W 000°15'0 0.1
2017-Jan-14 06:33N 49°17' W 000°15'0 0.1
2017-Jan-14 05:33N 49°17' W 000°15'1413.7
2017-Jan-14 04:33N 49°31' W 000°19'1515.0
2017-Jan-14 03:33N 49°44' W 000°29'5112.9
2017-Jan-13 23:34N 50°33' W 000°55'1111.0
2017-Jan-13 22:34N 50°43' W 001°02'6 6.2
2017-Jan-13 21:34N 50°49' W 001°06'0 0.0
2017-Jan-13 20:34N 50°49' W 001°06'0 0.0
2017-Jan-13 19:34N 50°49' W 001°06'6 5.8
2017-Jan-13 18:33N 50°43' W 001°02'1818.3
2017-Jan-13 17:33N 50°26' W 000°52'1918.9
2017-Jan-13 16:33N 50°09' W 000°42'1918.8
2017-Jan-13 15:33N 49°51' W 000°31'1717.2
2017-Jan-13 14:33N 49°35' W 000°22'1717.4
2017-Jan-13 13:33N 49°18' W 000°15'1 0.9
2017-Jan-13 12:33N 49°17' W 000°15'0 0.0
2017-Jan-13 11:33N 49°17' W 000°15'0 0.0
2017-Jan-13 10:33N 49°17' W 000°15'0 0.0
2017-Jan-13 09:33N 49°17' W 000°15'0 0.0
2017-Jan-13 08:33N 49°17' W 000°15'0 0.0
2017-Jan-13 07:33N 49°17' W 000°15'0 0.0
2017-Jan-13 06:33N 49°17' W 000°15'1110.5
2017-Jan-13 05:33N 49°28' W 000°19'1817.7
2017-Jan-13 04:33N 49°43' W 000°32'1515.4
2017-Jan-13 03:33N 49°58' W 000°38'1514.5
2017-Jan-13 02:33N 50°12' W 000°46'1615.5
2017-Jan-13 01:33N 50°27' W 000°53'1515.3
2017-Jan-13 00:33N 50°41' W 001°00'8 8.4
2017-Jan-12 23:33N 50°49' W 001°06'0 0.0
2017-Jan-12 22:33N 50°49' W 001°06'0 0.4
2017-Jan-12 21:34N 50°49' W 001°06'1515.0
2017-Jan-12 20:33N 50°35' W 000°57'1918.1
2017-Jan-12 19:29N 50°17' W 000°47'1515.6
2017-Jan-12 18:33N 50°04' W 000°37'1616.4
2017-Jan-12 17:33N 49°48' W 000°28'1918.8
2017-Jan-12 16:34N 49°30' W 000°19'1313.3
2017-Jan-12 15:33N 49°17' W 000°15'0 0.0
2017-Jan-12 14:33N 49°17' W 000°15'2 2.1
2017-Jan-12 13:33N 49°19' W 000°15'1918.7
2017-Jan-12 12:33N 49°37' W 000°22'1918.8
2017-Jan-12 11:33N 49°55' W 000°31'3919.5
2017-Jan-12 09:33N 50°32' W 000°53'1818.1
2017-Jan-12 08:33N 50°48' W 001°07'1 1.3
2017-Jan-12 07:33N 50°49' W 001°06'0 0.4
2017-Jan-12 06:33N 50°49' W 001°06'1413.6
2017-Jan-12 05:33N 50°36' W 000°58'1812.2
2017-Jan-12 04:04N 50°19' W 000°48'510.8
2017-Jan-12 03:33N 50°14' W 000°45'1110.7
2017-Jan-12 02:34N 50°04' W 000°41'1211.5
2017-Jan-12 01:33N 49°53' W 000°34'1211.7
2017-Jan-12 00:34N 49°42' W 000°28'1111.4
2017-Jan-11 23:33N 49°31' W 000°21'1110.8
2017-Jan-11 22:33N 49°21' W 000°15'4 4.0
2017-Jan-11 21:33N 49°17' W 000°15'0 0.0
2017-Jan-11 20:33N 49°17' W 000°15'1211.8
2017-Jan-11 19:33N 49°29' W 000°20'1919.3
2017-Jan-11 18:33N 49°46' W 000°33'1817.9
2017-Jan-11 17:33N 50°04' W 000°34'1918.7
2017-Jan-11 16:33N 50°21' W 000°47'1919.0
2017-Jan-11 15:34N 50°38' W 000°58'1111.3
2017-Jan-11 14:33N 50°49' W 001°06'0 0.0
2017-Jan-11 13:33N 50°49' W 001°06'4 4.5
2017-Jan-11 12:33N 50°44' W 001°04'2019.6
2017-Jan-11 11:33N 50°27' W 000°50'2020.4
2017-Jan-11 10:33N 50°07' W 000°41'1918.8
2017-Jan-11 09:33N 49°50' W 000°32'1818.3
2017-Jan-11 08:33N 49°33' W 000°20'1615.9
2017-Jan-11 07:34N 49°17' W 000°15'0 0.0
2017-Jan-11 06:34N 49°17' W 000°15'0 0.0
2017-Jan-11 05:34N 49°17' W 000°15'1413.9
2017-Jan-11 04:34N 49°31' W 000°20'1616.3
2017-Jan-11 03:34N 49°46' W 000°29'1615.6
2017-Jan-11 02:33N 50°01' W 000°37'1615.1
2017-Jan-11 01:32N 50°15' W 000°46'1515.1
2017-Jan-11 00:34N 50°29' W 000°54'1515.0
2017-Jan-10 23:34N 50°43' W 001°02'6 6.1
2017-Jan-10 22:34N 50°49' W 001°06'0 0.0
2017-Jan-10 21:33N 50°49' W 001°06'5 5.0
2017-Jan-10 20:33N 50°44' W 001°04'2019.5
2017-Jan-10 19:34N 50°26' W 000°51'2020.0
2017-Jan-10 18:34N 50°07' W 000°41'1919.1
2017-Jan-10 17:33N 49°49' W 000°33'  

Dump ship's entire track history